Wind_Speed
24 24 24 25 25 26 26 26 27 28 27 26 27 27 26 24 24 23 23 23 23 21 20 19 18 22 18 13 31 16 11 14 10 27 28 22 21 20 5 6 18 8 8 14 18 12 10
26 26 26 26 26 26 26 26 26 25 26 26 26 29 28 29 29 28 25 25 24 24 24 20 19 20 21 14 27 26 29 30 21 20 27 27 16 22 8 11 7 7 19 11 12 11 8
28 28 29 29 30 30 30 29 29 29 30 29 29 30 31 32 31 28 28 28 26 25 24 22 19 20 27 46 16 10 18 24 24 25 26 27 25 14 5 5 22 8 4 5 7 7 6
28 29 29 29 30 32 30 27 27 27 28 29 31 33 34 34 33 33 32 30 27 25 25 22 17 21 21 32 25 32 23 26 24 23 23 20 22 21 10 7 4 3 1 5 4 12 6
29 27 28 29 29 30 30 30 31 29 29 30 31 33 34 33 35 37 35 33 27 23 22 21 18 20 13 15 29 39 35 32 21 21 20 18 15 11 6 5 3 4 5 7 7 12 6
25 27 29 28 28 29 30 30 30 31 32 31 35 37 37 35 32 32 35 34 25 20 16 13 15 7 21 20 20 23 31 34 25 19 15 16 11 4 3 6 14 9 6 6 8 6 7
28 27 29 30 29 31 32 30 30 32 32 34 36 37 39 42 35 35 28 23 9 7 19 23 25 20 3 18 13 17 29 33 24 22 10 11 7 15 22 26 21 9 9 6 4 7 8
28 28 30 31 32 32 30 31 32 33 33 35 37 38 38 40 41 27 11 11 12 17 16 31 40 32 26 13 8 20 29 23 17 14 5 4 19 26 15 10 12 9 13 15 7 4 13
28 30 31 31 33 33 33 32 32 33 34 36 38 40 42 42 44 12 24 12 26 23 9 23 38 47 41 40 23 25 40 30 21 16 17 19 7 17 16 15 16 19 20 18 14 4 3
30 31 32 34 34 35 36 36 36 35 35 38 38 41 43 43 32 39 31 18 22 30 7 12 9 18 36 37 19 41 48 37 8 26 19 17 20 18 17 25 21 22 16 18 13 6 6
32 34 33 33 34 36 36 36 36 36 38 38 37 38 41 39 33 25 22 23 23 14 6 8 5 11 13 21 5 36 49 31 23 14 12 15 12 22 16 23 22 19 8 15 7 5 3
33 33 35 35 36 37 37 38 38 37 38 38 40 40 43 44 31 25 21 19 14 1 7 6 3 4 2 14 3 6 34 35 10 9 13 17 8 15 26 6 21 9 7 6 5 4 7
34 34 35 36 38 39 40 40 39 39 39 39 39 42 40 43 25 19 17 14 3 4 7 11 11 16 23 8 13 4 12 20 15 12 20 12 5 4 6 6 2 7 11 1 1 1 9
33 34 36 38 39 40 41 42 40 39 39 38 38 41 42 28 9 21 15 2 5 7 10 18 22 16 10 20 18 10 7 12 21 7 1 17 7 14 5 9 9 16 15 7 11 6 5
33 36 39 39 40 40 41 41 40 40 39 37 37 40 44 8 14 24 11 3 4 5 9 15 21 14 13 10 11 12 17 17 17 26 11 9 13 1 9 6 13 6 13 9 4 1 4
35 36 39 39 39 41 41 41 41 39 38 34 34 36 22 8 20 23 2 4 4 16 8 6 6 6 19 14 8 10 8 11 14 23 16 5 3 3 1 5 2 8 9 2 1 5 5
36 37 37 38 39 38 40 43 41 39 37 33 27 11 13 9 22 7 1 1 10 16 18 7 6 6 12 17 9 9 8 19 16 15 23 23 3 2 4 9 17 4 5 5 5 5 5
33 34 35 35 36 38 44 45 40 36 35 30 17 4 8 23 5 2 1 2 11 11 16 5 6 8 11 18 6 8 11 14 33 19 20 19 16 7 8 2 5 10 8 11 5 5 4
33 33 34 34 36 38 41 43 39 36 33 32 10 14 16 8 1 2 3 2 4 10 9 5 5 8 9 9 10 17 15 25 39 17 6 16 5 5 1 3 2 7 10 10 2 2 6
33 32 33 35 37 40 41 41 39 38 35 28 9 3 8 5 7 4 0 3 5 9 3 4 7 5 8 10 7 12 14 13 35 19 31 12 6 10 5 2 5 6 10 16 16 5 9
31 31 32 33 35 37 39 40 39 36 36 30 5 3 6 4 5 1 2 3 8 4 3 6 4 4 5 4 16 3 13 19 19 11 16 7 4 14 5 6 3 3 8 17 17 24 9
30 32 32 34 33 36 38 40 36 36 36 22 9 9 7 7 15 7 5 3 7 7 1 6 3 15 10 10 12 20 17 17 7 10 13 9 2 4 10 10 4 4 7 8 17 18 12
31 33 33 34 35 35 39 39 36 31 30 19 28 15 10 10 3 2 3 4 6 8 5 9 13 10 11 9 19 25 29 32 21 19 14 5 1 3 6 11 8 5 12 9 5 6 11
31 34 35 34 35 35 38 38 36 34 26 23 29 26 7 8 6 4 7 4 8 9 7 12 14 11 14 30 31 33 28 21 17 17 13 9 9 1 1 7 7 7 11 21 19 14 16
30 33 37 35 35 36 37 37 37 34 30 25 27 23 5 4 6 7 11 6 9 15 7 11 23 16 29 23 9 9 4 1 2 3 12 14 7 4 3 4 4 2 4 9 8 14 10
31 34 38 37 36 38 38 37 37 34 32 26 27 23 13 5 5 10 8 10 5 4 5 6 17 18 22 2 2 3 4 5 4 8 6 5 13 6 2 3 4 3 6 5 3 6 8
32 35 38 39 39 39 40 39 37 35 30 26 24 20 16 8 12 7 4 5 3 2 4 5 9 14 10 2 2 3 3 7 5 7 6 4 5 12 6 1 1 13 25 4 6 7 14
35 38 40 41 42 41 42 40 37 35 29 26 25 18 14 11 20 23 17 13 15 9 4 5 9 4 4 4 4 4 3 2 3 4 3 5 6 5 5 3 3 21 12 6 9 22 21
36 39 41 42 44 43 43 39 40 36 30 24 23 20 16 13 24 31 28 32 31 28 22 5 4 4 4 2 3 2 3 3 2 3 3 1 4 3 2 3 3 9 7 19 27 20 24
Wind_Direction
16 14 11 10 6 5 1 355 353 349 344 340 336 332 329 322 317 313 310 310 310 309 308 299 276 269 260 241 242 242 254 288 256 217 220 211 206 218 217 222 236 234 237 230 244 218 218
13 10 11 10 8 5 3 360 357 354 349 347 342 336 327 320 315 312 306 303 302 301 302 298 274 254 242 250 259 257 250 258 248 218 217 208 205 209 241 245 187 251 239 246 238 230 218
17 15 11 8 6 5 1 358 355 352 349 344 336 331 327 324 319 313 308 300 295 293 294 290 268 247 238 244 263 255 255 244 239 235 225 222 211 188 186 273 282 241 242 298 230 213 231
12 10 8 7 5 2 2 357 351 346 345 340 336 332 329 326 321 317 315 305 298 289 289 282 253 236 246 262 263 239 239 241 228 226 224 222 214 235 225 253 310 286 191 251 251 179 222
10 9 5 3 2 359 358 354 352 355 351 347 343 339 333 323 319 315 314 302 296 280 277 263 233 216 256 255 226 235 226 227 223 212 209 205 214 207 186 156 340 235 244 230 298 193 145
8 5 1 0 358 357 355 353 352 350 349 349 347 344 339 332 325 318 313 304 298 265 247 218 211 211 240 227 228 226 215 221 215 200 194 192 186 181 175 152 215 204 215 229 215 204 174
5 3 2 357 356 356 353 352 349 347 345 342 342 344 342 340 334 329 319 331 334 278 204 200 202 203 208 226 234 215 203 192 196 185 187 202 170 200 198 200 211 176 204 213 255 197 160
3 359 356 357 354 351 352 345 344 343 340 338 337 337 337 339 339 333 334 334 353 321 282 256 241 240 224 173 206 195 192 173 178 198 164 183 220 212 206 206 214 211 231 251 272 212 181
360 356 356 353 350 349 346 346 343 340 339 336 335 335 336 336 340 348 315 301 327 331 261 274 247 243 230 228 225 208 187 191 189 189 199 210 221 215 193 188 199 224 222 231 236 190 274
357 354 352 350 351 350 346 346 344 339 334 333 330 331 332 335 338 328 326 324 337 328 257 268 253 249 227 219 233 211 194 179 204 207 196 229 243 198 196 208 191 218 209 224 224 153 219
356 353 352 349 346 343 340 337 336 334 336 334 334 332 332 338 321 314 329 337 335 330 252 264 229 265 219 181 146 201 201 191 199 171 169 213 183 212 215 211 197 218 171 195 192 203 162
354 352 349 346 345 342 340 336 335 333 330 330 330 331 332 335 333 343 334 329 328 213 261 266 331 329 166 213 237 78 184 202 238 206 218 210 178 192 216 175 201 142 93 57 57 113 236
352 349 347 342 341 339 337 336 334 332 329 329 330 329 329 330 322 334 329 323 318 212 311 279 299 355 342 315 224 144 161 202 203 197 224 222 204 168 150 125 114 138 136 60 318 236 235
348 345 341 341 341 339 337 334 332 330 330 330 327 324 326 333 3 344 343 328 236 273 279 339 342 330 319 309 290 211 164 187 216 232 323 216 235 176 186 178 172 189 185 173 198 187 212
345 343 342 343 340 337 336 334 331 329 329 330 328 327 332 6 323 333 351 276 260 315 352 334 333 339 333 321 357 322 204 210 207 201 190 182 232 144 177 145 153 210 213 193 70 49 98
346 344 342 342 340 340 340 338 334 331 329 329 326 323 327 332 312 321 67 260 296 355 324 310 311 351 305 310 303 310 319 237 215 208 201 206 214 346 78 94 102 180 164 152 135 187 227
346 344 343 341 341 348 346 342 336 334 332 326 319 307 315 320 313 328 223 133 326 327 339 324 337 297 327 346 300 277 260 306 230 206 200 215 180 281 138 197 190 142 185 198 176 169 181
347 343 341 344 350 351 350 349 346 341 338 344 312 255 298 323 7 290 28 277 311 325 332 338 308 335 4 320 280 274 258 214 358 300 197 208 203 191 208 273 211 216 210 188 188 227 208
343 344 347 351 353 350 351 355 354 352 349 341 304 290 318 290 239 268 303 315 294 315 324 350 313 0 348 356 320 335 5 329 344 330 231 185 200 165 135 347 352 206 209 212 203 75 198
346 347 348 349 351 353 354 354 356 356 354 344 305 301 316 273 268 143 86 314 302 300 263 262 284 323 340 311 314 293 339 323 310 309 299 317 137 202 167 227 139 193 201 212 208 223 222
344 345 347 347 345 348 350 352 352 352 352 346 278 258 260 284 283 264 113 227 288 297 262 304 306 310 310 311 313 295 313 318 319 5 339 335 168 155 184 24 332 230 217 222 207 224 196
343 343 343 345 344 345 348 349 349 353 351 4 325 333 316 285 272 291 299 241 270 283 289 291 282 305 311 292 287 298 312 307 282 289 335 326 312 158 201 137 40 336 307 211 222 240 248
341 343 342 343 341 345 346 348 350 348 356 347 333 315 274 268 250 224 236 228 277 322 304 296 291 308 309 317 304 290 283 277 263 274 303 278 266 140 215 155 129 243 230 251 198 190 212
339 341 342 342 341 342 343 345 347 348 345 338 336 313 267 283 216 223 265 295 295 297 291 303 315 315 305 319 319 297 270 256 253 253 235 273 321 292 169 117 219 250 190 210 218 218 210
337 340 342 341 340 343 342 341 342 342 344 333 334 327 287 289 248 266 272 284 297 304 293 299 300 310 324 319 313 311 310 42 304 188 207 210 245 254 199 177 337 266 242 199 181 246 216
339 339 341 341 339 341 341 339 338 339 339 334 335 341 285 287 245 258 292 268 270 282 320 254 304 321 319 294 306 300 329 312 341 349 34 233 217 277 217 150 167 317 290 161 149 267 210
339 339 341 341 339 337 338 339 334 334 336 337 326 337 313 269 279 277 273 259 263 308 268 314 317 326 334 319 309 311 337 329 358 336 350 321 311 236 250 161 351 342 328 326 141 329 326
339 339 340 341 340 336 335 335 332 330 326 330 323 323 329 288 296 283 281 280 279 259 243 293 333 349 345 18 331 3 326 308 353 306 356 356 333 334 261 215 264 1 359 33 322 327 335
339 337 340 340 339 336 334 331 330 328 323 319 314 318 326 285 272 286 282 271 272 273 268 261 254 321 286 32 360 344 328 311 288 296 326 29 333 320 55 288 239 328 76 8 0 339 337
Height
1548 1544 1541 1538 1534 1530 1527 1523 1519 1515 1512 1508 1504 1501 1498 1496 1493 1490 1488 1486 1482 1479 1476 1473 1474 1473 1473 1471 1456 1460 1459 1459 1462 1463 1465 1468 1471 1474 1475 1472 1472 1469 1464 1463 1462 1463 1462
1548 1544 1540 1537 1533 1529 1525 1521 1517 1513 1509 1504 1500 1496 1492 1489 1486 1484 1482 1480 1477 1473 1471 1469 1467 1466 1466 1462 1450 1453 1455 1456 1458 1458 1459 1462 1462 1466 1468 1467 1469 1462 1461 1459 1459 1459 1459
1548 1545 1541 1537 1533 1529 1524 1520 1516 1512 1507 1501 1497 1492 1487 1483 1479 1476 1473 1471 1469 1466 1463 1461 1461 1459 1454 1435 1447 1447 1449 1450 1452 1453 1454 1456 1460 1461 1462 1464 1462 1459 1460 1458 1454 1456 1456
1548 1545 1541 1537 1533 1529 1524 1520 1516 1510 1505 1499 1494 1488 1483 1478 1474 1469 1465 1461 1460 1458 1458 1454 1452 1452 1438 1430 1437 1439 1442 1446 1447 1448 1451 1454 1455 1457 1457 1457 1457 1459 1458 1463 1448 1448 1452
1548 1544 1540 1536 1532 1528 1524 1519 1514 1509 1504 1498 1492 1487 1481 1475 1469 1463 1457 1452 1449 1446 1447 1446 1445 1444 1430 1424 1420 1425 1432 1436 1442 1445 1446 1449 1452 1452 1453 1459 1465 1460 1467 1462 1454 1443 1446
1549 1545 1541 1537 1532 1527 1523 1518 1513 1508 1502 1496 1490 1483 1477 1471 1465 1458 1450 1443 1438 1437 1436 1438 1440 1444 1421 1411 1412 1413 1419 1430 1437 1441 1446 1445 1446 1449 1451 1456 1457 1457 1460 1454 1451 1443 1445
1549 1545 1540 1536 1530 1526 1522 1517 1512 1506 1500 1494 1487 1481 1473 1466 1459 1453 1444 1439 1439 1433 1427 1411 1405 1402 1403 1405 1409 1409 1412 1421 1431 1435 1436 1437 1439 1438 1429 1424 1423 1436 1441 1441 1434 1432 1440
1548 1544 1540 1535 1530 1524 1519 1514 1510 1504 1498 1492 1485 1478 1472 1464 1456 1449 1447 1446 1445 1444 1420 1410 1404 1400 1398 1399 1403 1404 1410 1415 1419 1425 1431 1434 1424 1409 1417 1426 1430 1433 1436 1434 1433 1428 1436
1547 1542 1537 1533 1527 1522 1517 1511 1507 1501 1495 1488 1481 1474 1468 1462 1455 1449 1446 1444 1439 1433 1421 1396 1390 1385 1385 1395 1387 1390 1398 1403 1402 1414 1418 1415 1401 1412 1412 1417 1426 1425 1428 1430 1431 1429 1430
1546 1542 1537 1532 1527 1522 1517 1511 1505 1499 1493 1486 1478 1472 1465 1458 1453 1445 1440 1438 1434 1432 1417 1389 1381 1366 1374 1378 1373 1378 1381 1391 1399 1397 1407 1412 1404 1405 1407 1407 1408 1419 1413 1421 1427 1434 1444
1545 1540 1534 1529 1524 1519 1514 1509 1503 1497 1491 1484 1476 1469 1462 1458 1450 1445 1438 1434 1431 1433 1403 1375 1366 1365 1359 1363 1358 1357 1370 1380 1379 1385 1397 1384 1391 1401 1403 1388 1397 1393 1401 1411 1418 1427 1431
1543 1538 1534 1530 1523 1518 1512 1506 1500 1493 1487 1481 1474 1466 1458 1453 1448 1442 1436 1434 1432 1435 1406 1376 1361 1362 1360 1361 1358 1357 1364 1372 1373 1380 1377 1373 1375 1381 1378 1389 1391 1397 1406 1414 1421 1432 1441
1544 1539 1534 1528 1522 1516 1510 1504 1496 1490 1484 1477 1470 1462 1455 1451 1443 1440 1437 1436 1434 1434 1395 1375 1376 1382 1377 1369 1357 1359 1363 1374 1375 1383 1377 1374 1376 1374 1376 1390 1393 1394 1405 1442 1445 1448 1422
1543 1537 1531 1526 1520 1513 1506 1499 1491 1485 1478 1472 1465 1456 1449 1446 1443 1439 1435 1437 1436 1417 1406 1391 1385 1384 1387 1382 1366 1357 1362 1366 1367 1370 1379 1379 1387 1369 1367 1371 1386 1384 1388 1405 1413 1427 1416
1540 1535 1529 1522 1516 1509 1502 1495 1488 1481 1474 1468 1460 1451 1445 1442 1441 1438 1437 1436 1432 1416 1414 1407 1391 1381 1378 1382 1388 1375 1354 1354 1350 1353 1366 1372 1369 1360 1359 1363 1369 1390 1388 1375 1395 1396 1415
1539 1534 1527 1521 1514 1507 1499 1491 1483 1475 1469 1464 1458 1449 1442 1441 1440 1437 1439 1434 1427 1424 1419 1412 1407 1401 1391 1386 1385 1382 1371 1343 1342 1344 1345 1352 1362 1362 1361 1360 1367 1369 1370 1391 1399 1402 1396
1539 1533 1526 1518 1511 1503 1495 1487 1479 1471 1465 1461 1454 1449 1439 1440 1437 1434 1439 1437 1431 1423 1422 1419 1409 1405 1400 1395 1387 1378 1380 1359 1341 1337 1337 1340 1349 1365 1361 1360 1357 1371 1373 1374 1375 1389 1388
1535 1528 1523 1515 1509 1502 1495 1485 1476 1470 1464 1455 1453 1448 1436 1437 1439 1434 1438 1434 1429 1422 1419 1418 1414 1410 1409 1401 1397 1370 1358 1358 1360 1345 1335 1331 1335 1361 1361 1355 1354 1354 1358 1362 1374 1376 1383
1533 1528 1522 1515 1508 1502 1494 1484 1476 1469 1464 1459 1452 1444 1434 1435 1443 1437 1432 1432 1429 1423 1419 1418 1413 1414 1410 1405 1396 1377 1375 1372 1367 1352 1330 1323 1333 1355 1361 1359 1357 1357 1356 1355 1361 1369 1374
1533 1526 1520 1515 1508 1500 1494 1486 1478 1470 1464 1459 1454 1446 1438 1435 1432 1433 1435 1430 1428 1423 1420 1418 1414 1411 1408 1403 1398 1392 1383 1373 1372 1353 1340 1329 1323 1333 1343 1343 1348 1355 1352 1351 1353 1375 1355
1530 1523 1517 1510 1502 1497 1490 1483 1476 1470 1463 1457 1451 1445 1443 1437 1430 1430 1432 1429 1426 1425 1419 1416 1413 1410 1409 1407 1394 1385 1380 1370 1356 1344 1345 1333 1327 1326 1343 1341 1339 1343 1346 1346 1350 1339 1356
1526 1520 1515 1509 1502 1496 1489 1483 1476 1469 1460 1457 1455 1451 1441 1436 1431 1429 1427 1426 1422 1419 1418 1415 1414 1405 1403 1403 1398 1389 1381 1370 1376 1353 1353 1341 1333 1330 1337 1341 1347 1356 1343 1345 1343 1341 1348
1525 1519 1512 1507 1500 1495 1488 1481 1474 1468 1463 1459 1453 1446 1442 1430 1427 1427 1424 1421 1418 1415 1413 1411 1407 1403 1398 1393 1386 1380 1372 1360 1362 1360 1356 1352 1337 1334 1331 1339 1348 1355 1342 1342 1341 1340 1340
1523 1517 1511 1506 1500 1493 1486 1478 1472 1467 1463 1459 1453 1444 1436 1426 1423 1421 1418 1417 1417 1413 1413 1407 1404 1402 1393 1384 1379 1369 1358 1355 1353 1351 1355 1351 1342 1337 1338 1339 1339 1326 1317 1323 1327 1324 1327
1519 1514 1508 1501 1494 1488 1482 1476 1470 1463 1458 1453 1449 1443 1435 1427 1422 1419 1417 1415 1412 1409 1408 1407 1400 1397 1392 1385 1378 1361 1351 1348 1348 1346 1347 1351 1352 1335 1333 1332 1325 1319 1317 1318 1320 1315 1318
1517 1512 1506 1498 1490 1486 1478 1471 1465 1460 1453 1448 1445 1440 1435 1428 1420 1417 1417 1414 1412 1409 1406 1401 1397 1394 1389 1385 1383 1387 1362 1352 1346 1347 1342 1345 1346 1342 1328 1325 1326 1323 1315 1308 1313 1324 1310
1514 1507 1502 1495 1488 1481 1475 1469 1461 1455 1450 1444 1440 1437 1432 1425 1418 1416 1414 1412 1409 1408 1406 1403 1398 1392 1389 1388 1385 1376 1372 1368 1370 1360 1357 1353 1339 1333 1327 1329 1325 1346 1332 1314 1327 1344 1325
1513 1507 1500 1493 1485 1478 1471 1463 1457 1450 1445 1441 1435 1434 1431 1423 1415 1412 1411 1409 1408 1407 1408 1404 1403 1397 1394 1395 1387 1388 1381 1382 1383 1366 1363 1364 1360 1342 1331 1334 1333 1346 1337 1343 1357 1340 1331
1508 1501 1495 1488 1480 1472 1465 1458 1451 1445 1439 1436 1430 1428 1426 1422 1413 1409 1407 1404 1403 1403 1404 1404 1403 1402 1400 1403 1400 1397 1395 1389 1385 1377 1369 1369 1370 1367 1365 1363 1359 1359 1357 1358 1352 1345 1334